| time (UTC) | temp F | wind direction | speed MPH | gust MPH | rain 1hr in | rain 24hr in | rain mn in | humidity % | barometer mb |
| 20260509154528 | 57 | 260 | 0.0 | 6.0 | 0.00 | 0.08 | 0.08 | 64 | 1011.1 |
| 20260509153027 | 58 | 274 | 1.0 | 9.0 | 0.00 | 0.08 | 0.08 | 62 | 1011.2 |
| 20260509151525 | 58 | 325 | 0.0 | 13.0 | 0.00 | 0.08 | 0.08 | 63 | 1010.8 |
| 20260509150024 | 58 | 329 | 1.0 | 9.0 | 0.00 | 0.08 | 0.08 | 64 | 1010.7 |
| 20260509144531 | 58 | 324 | 2.0 | 11.0 | 0.00 | 0.08 | 0.08 | 64 | 1010.5 |
| 20260509143023 | 57 | 315 | 0.0 | 13.0 | 0.00 | 0.08 | 0.08 | 71 | 1010.6 |
| 20260509141522 | 55 | 311 | 0.0 | 3.0 | 0.00 | 0.08 | 0.08 | 77 | 1010.7 |
| 20260509140009 | 53 | 288 | 0.0 | 1.0 | 0.00 | 0.08 | 0.08 | 83 | 1010.7 |
| 20260509134509 | 51 | 341 | 0.0 | 1.0 | 0.00 | 0.08 | 0.08 | 88 | 1010.6 |
| 20260509133012 | 51 | 261 | 0.0 | 0.0 | 0.00 | 0.08 | 0.08 | 89 | 1010.6 |
| 20260509131507 | 51 | 261 | 0.0 | 0.0 | 0.00 | 0.08 | 0.08 | 88 | 1010.3 |
| 20260509130005 | 51 | 266 | 0.0 | 0.0 | 0.00 | 0.08 | 0.08 | 88 | 1010.0 |
| 20260509124504 | 50 | 265 | 0.0 | 6.0 | 0.00 | 0.08 | 0.08 | 88 | 1010.0 |
| 20260509123006 | 50 | 239 | 0.0 | 5.0 | 0.00 | 0.08 | 0.08 | 89 | 1009.8 |
| 20260509121600 | 50 | 229 | 0.0 | 0.0 | 0.00 | 0.08 | 0.08 | 88 | 1009.8 |
| 20260509120041 | 51 | 229 | 0.0 | 0.0 | 0.00 | 0.08 | 0.08 | 87 | 1009.5 |
| 20260509114541 | 51 | 235 | 0.0 | 0.0 | 0.01 | 0.08 | 0.08 | 87 | 1009.2 |
| 20260509113020 | 51 | 240 | 0.0 | 0.0 | 0.02 | 0.08 | 0.08 | 86 | 1009.4 |
| 20260509111520 | 51 | 238 | 0.0 | 0.0 | 0.06 | 0.08 | 0.08 | 83 | 1009.3 |
| 20260509110010 | 52 | 239 | 0.0 | 0.0 | 0.08 | 0.08 | 0.08 | 83 | 1009.5 |
| 20260509104505 | 52 | 229 | 0.0 | 0.0 | 0.07 | 0.07 | 0.07 | 80 | 1009.7 |
| 20260509103002 | 53 | 228 | 0.0 | 6.0 | 0.06 | 0.06 | 0.06 | 78 | 1009.7 |
| 20260509101600 | 56 | 343 | 0.0 | 9.0 | 0.02 | 0.02 | 0.02 | 68 | 1009.9 |
| 20260509100054 | 56 | 126 | 0.0 | 2.0 | 0.00 | 0.00 | 0.00 | 63 | 1008.8 |
| 20260509094552 | 56 | 263 | 0.0 | 0.0 | 0.00 | 0.00 | 0.00 | 71 | 1008.1 |
| 20260509093051 | 56 | 257 | 0.0 | 0.0 | 0.00 | 0.00 | 0.00 | 70 | 1007.8 |
| 20260509091549 | 56 | 250 | 0.0 | 0.0 | 0.00 | 0.00 | 0.00 | 67 | 1007.6 |
| 20260509090037 | 56 | 255 | 0.0 | 1.0 | 0.00 | 0.01 | 0.00 | 66 | 1007.7 |
| 20260509084538 | 56 | 254 | 0.0 | 0.0 | 0.00 | 0.01 | 0.00 | 65 | 1007.6 |
| 20260509083038 | 57 | 246 | 0.0 | 0.0 | 0.00 | 0.01 | 0.00 | 64 | 1007.7 |
| 20260509081535 | 58 | 242 | 0.0 | 0.0 | 0.00 | 0.01 | 0.00 | 57 | 1007.7 |
| 20260509080038 | 58 | 239 | 0.0 | 0.0 | 0.00 | 0.01 | 0.00 | 58 | 1007.4 |
| 20260509074530 | 58 | 235 | 0.0 | 0.0 | 0.00 | 0.01 | 0.00 | 61 | 1007.4 |
| 20260509073029 | 58 | 235 | 0.0 | 0.0 | 0.00 | 0.01 | 0.00 | 62 | 1007.3 |
| 20260509071527 | 58 | 234 | 0.0 | 0.0 | 0.00 | 0.01 | 0.00 | 61 | 1007.3 |
| 20260509070014 | 59 | 234 | 0.0 | 0.0 | 0.00 | 0.01 | 0.00 | 60 | 1007.1 |
| 20260509064511 | 60 | 186 | 0.0 | 0.0 | 0.00 | 0.01 | 0.00 | 57 | 1007.2 |
| 20260509063010 | 60 | 184 | 0.0 | 0.0 | 0.00 | 0.01 | 0.00 | 57 | 1007.0 |
| 20260509061511 | 60 | 180 | 0.0 | 0.0 | 0.00 | 0.01 | 0.00 | 56 | 1006.9 |
| 20260509060007 | 60 | 270 | 0.0 | 0.0 | 0.00 | 0.01 | 0.00 | 55 | 1006.9 |
| 20260509054507 | 61 | 291 | 0.0 | 0.0 | 0.00 | 0.01 | 0.00 | 55 | 1007.1 |
| 20260509053006 | 61 | 282 | 0.0 | 0.0 | 0.00 | 0.01 | 0.00 | 54 | 1007.3 |
| 20260509051505 | 60 | 267 | 0.0 | 0.0 | 0.00 | 0.01 | 0.00 | 55 | 1007.4 |
| 20260509050111 | 61 | 265 | 0.0 | 0.0 | 0.00 | 0.01 | 0.00 | 53 | 1007.1 |
| 20260509044559 | 62 | 229 | 0.0 | 5.0 | 0.00 | 0.01 | 0.00 | 51 | 1006.8 |
| 20260509043048 | 63 | 246 | 0.0 | 5.0 | 0.00 | 0.01 | 0.00 | 48 | 1006.8 |
| 20260509041548 | 63 | 248 | 0.0 | 4.0 | 0.00 | 0.01 | 0.00 | 50 | 1006.7 |
| 20260509040047 | 63 | 237 | 0.0 | 10.0 | 0.00 | 0.01 | 0.00 | 51 | 1006.7 |
| 20260509034546 | 63 | 237 | 2.0 | 14.0 | 0.00 | 0.01 | 0.00 | 52 | 1007.0 |
| 20260509033042 | 64 | 228 | 0.0 | 8.0 | 0.00 | 0.01 | 0.00 | 47 | 1006.6 |
| 20260509031546 | 65 | 250 | 0.0 | 6.0 | 0.00 | 0.01 | 0.00 | 42 | 1006.2 |
| 20260509030035 | 65 | 229 | 0.0 | 1.0 | 0.00 | 0.01 | 0.00 | 42 | 1006.1 |
| 20260509024521 | 66 | 236 | 0.0 | 13.0 | 0.00 | 0.01 | 0.00 | 42 | 1005.9 |
| 20260509023026 | 68 | 228 | 0.0 | 0.0 | 0.00 | 0.01 | 0.00 | 35 | 1006.1 |
| 20260509021516 | 69 | 143 | 0.0 | 0.0 | 0.00 | 0.01 | 0.00 | 34 | 1005.9 |
| 20260509020017 | 69 | 140 | 0.0 | 0.0 | 0.00 | 0.01 | 0.00 | 33 | 1005.7 |
| 20260509014514 | 70 | 140 | 0.0 | 0.0 | 0.00 | 0.01 | 0.00 | 32 | 1005.6 |
| 20260509013013 | 70 | 140 | 0.0 | 0.0 | 0.00 | 0.01 | 0.00 | 31 | 1005.8 |
| 20260509011511 | 70 | 140 | 0.0 | 0.0 | 0.00 | 0.01 | 0.00 | 31 | 1006.0 |
| 20260509010053 | 71 | 140 | 0.0 | 0.0 | 0.00 | 0.03 | 0.00 | 30 | 1005.9 |
| 20260509004553 | 71 | 140 | 0.0 | 0.0 | 0.00 | 0.03 | 0.00 | 31 | 1006.0 |
| 20260509003055 | 71 | 140 | 0.0 | 1.0 | 0.00 | 0.03 | 0.00 | 30 | 1006.0 |
| 20260509001539 | 72 | 148 | 0.0 | 6.0 | 0.00 | 0.03 | 0.00 | 29 | 1006.1 |
| 20260509000042 | 71 | 137 | 0.0 | 4.0 | 0.00 | 0.03 | 0.00 | 30 | 1006.3 |
| 20260508234540 | 72 | 125 | 0.0 | 3.0 | 0.00 | 0.03 | 0.00 | 30 | 1006.3 |
| 20260508233035 | 73 | 95 | 0.0 | 0.0 | 0.00 | 0.03 | 0.00 | 30 | 1006.4 |
| 20260508231533 | 72 | 213 | 0.0 | 8.0 | 0.00 | 0.03 | 0.00 | 29 | 1006.6 |
| 20260508230033 | 72 | 164 | 1.0 | 4.0 | 0.00 | 0.03 | 0.00 | 29 | 1006.8 |
| 20260508224533 | 72 | 178 | 0.0 | 1.0 | 0.00 | 0.03 | 0.00 | 30 | 1007.0 |
| 20260508223010 | 72 | 142 | 0.0 | 2.0 | 0.00 | 0.03 | 0.00 | 30 | 1007.2 |
| 20260508221508 | 72 | 139 | 0.0 | 5.0 | 0.00 | 0.03 | 0.00 | 29 | 1007.5 |
| 20260508220047 | 71 | 205 | 0.0 | 4.0 | 0.00 | 0.03 | 0.00 | 30 | 1007.7 |
| 20260508214546 | 71 | 188 | 0.0 | 4.0 | 0.00 | 0.03 | 0.00 | 31 | 1008.0 |
| 20260508213032 | 70 | 175 | 0.0 | 5.0 | 0.00 | 0.03 | 0.00 | 32 | 1008.2 |
| 20260508211530 | 70 | 132 | 0.0 | 5.0 | 0.00 | 0.03 | 0.00 | 32 | 1008.3 |
| 20260508210027 | 69 | 202 | 0.0 | 5.0 | 0.00 | 0.03 | 0.03 | 33 | 1008.6 |
| 20260508204531 | 69 | 157 | 0.0 | 1.0 | 0.00 | 0.03 | 0.03 | 35 | 1008.8 |
| 20260508203023 | 69 | 165 | 0.0 | 2.0 | 0.00 | 0.03 | 0.03 | 35 | 1009.0 |
| 20260508201525 | 68 | 253 | 0.0 | 4.0 | 0.00 | 0.03 | 0.03 | 36 | 1009.3 |
| 20260508200022 | 68 | 136 | 0.0 | 1.0 | 0.00 | 0.03 | 0.03 | 37 | 1009.5 |
| 20260508194522 | 67 | 188 | 0.0 | 5.0 | 0.00 | 0.03 | 0.03 | 39 | 1009.8 |
| 20260508193007 | 67 | 140 | 0.0 | 5.0 | 0.00 | 0.03 | 0.03 | 40 | 1010.0 |
| 20260508191502 | 66 | 161 | 0.0 | 6.0 | 0.00 | 0.03 | 0.03 | 42 | 1010.3 |
| 20260508190100 | 66 | 188 | 1.0 | 10.0 | 0.00 | 0.03 | 0.03 | 44 | 1010.6 |
| 20260508184600 | 65 | 132 | 0.0 | 9.0 | 0.00 | 0.03 | 0.03 | 46 | 1010.9 |
| 20260508183055 | 64 | 222 | 0.0 | 8.0 | 0.00 | 0.03 | 0.03 | 49 | 1011.3 |
| 20260508181621 | 64 | 174 | 0.0 | 5.0 | 0.00 | 0.03 | 0.03 | 50 | 1011.7 |
| 20260508180057 | 62 | 126 | 0.0 | 5.0 | 0.00 | 0.03 | 0.03 | 53 | 1011.9 |
| 20260508174558 | 61 | 159 | 0.0 | 8.0 | 0.00 | 0.03 | 0.03 | 54 | 1012.3 |
| 20260508173050 | 61 | 134 | 0.0 | 5.0 | 0.00 | 0.03 | 0.03 | 54 | 1012.4 |
| 20260508171538 | 61 | 197 | 0.0 | 8.0 | 0.00 | 0.03 | 0.03 | 59 | 1012.6 |
| 20260508170039 | 60 | 171 | 0.0 | 6.0 | 0.00 | 0.03 | 0.03 | 61 | 1012.7 |
| 20260508164537 | 59 | 136 | 0.0 | 6.0 | 0.00 | 0.03 | 0.03 | 62 | 1012.9 |
| 20260508163039 | 58 | 140 | 0.0 | 7.0 | 0.00 | 0.03 | 0.03 | 66 | 1013.1 |
| 20260508161536 | 57 | 138 | 0.0 | 10.0 | 0.00 | 0.03 | 0.03 | 68 | 1013.2 |
| 20260508160036 | 57 | 150 | 0.0 | 7.0 | 0.00 | 0.03 | 0.03 | 69 | 1013.4 |